Port Heiden, AK

11:38 AM AKDT on April 27, 2017 (GMT -0800)
Port Heiden

Weather History for PAPH - October, 2013

Change the Weather History Date:

Friday, October 18, 2013

  Actual Average Record
Temperature  
Mean Temperature 45 °F -  
Max Temperature 53 °F 40 °F 62 °F (2004)
Min Temperature 37 °F 30 °F 17 °F (2016)
Degree Days  
Heating Degree Days 20    
Moisture  
Dew Point 36 °F    
Average Humidity 66    
Maximum Humidity 81    
Minimum Humidity 42    
Precipitation  
Precipitation 0.00 in - - ()
Sea Level Pressure  
Sea Level Pressure 29.26 in    
Wind  
Wind Speed 19 mph (SSE)    
Max Wind Speed 37 mph    
Max Gust Speed 44 mph    
Visibility 10 miles    
Events      
Averages and records for this station are not official NWS values.
T = Trace of Precipitation, MM = Missing Value Source: NWS Daily Summary

Daily Weather History Graph

Daily Weather History Graph

Search for Another Location

Airport or City:

Trip Planner

Search our weather history database for the weather conditions in past years. The results will help you decide how hot, cold, wet, or windy it might be!

Date:

Astronomy

Oct. 18, 2013 Rise Set
Actual Time 9:15 AM AKDT 7:22 PM AKDT
Civil Twilight 8:36 AM AKDT 8:01 PM AKDT
Nautical Twilight 7:51 AM AKDT 8:45 PM AKDT
Astronomical Twilight 7:07 AM AKDT 9:30 PM AKDT
Moon 7:12 PM AKDT (10/18) 9:05 AM AKDT (10/18)
Length of Visible Light 11h 25m
Length of Day
10h 07m
Full, 100% of the Moon is Illuminated
Oct 18
Full
Oct 18
Full
Oct 26
Last Quarter
Nov 3
New
Nov 9
First Quarter

Hourly Weather History & Observations

Time (AKDT) Temp. Windchill Dew Point Humidity Pressure Visibility Wind Dir Wind Speed Gust Speed Precip Events Conditions
12:16 AM 42.8 °F 38.0 °F 37.4 °F 81% 29.56 in 2.5 mi South 8.1 mph - N/A   Overcast
12:36 AM 42.8 °F 39.3 °F 37.4 °F 81% 29.56 in 5.0 mi South 5.8 mph - N/A   Overcast
12:56 AM 42.8 °F 38.0 °F 35.6 °F 76% 29.56 in 10.0 mi SSE 8.1 mph - N/A   Overcast
1:16 AM 42.8 °F 37.5 °F 37.4 °F 81% 29.56 in 10.0 mi SE 9.2 mph - N/A   Overcast
1:36 AM 41.0 °F 36.4 °F 35.6 °F 81% 29.55 in 10.0 mi SE 6.9 mph - N/A   Scattered Clouds
1:56 AM 39.2 °F 34.2 °F 33.8 °F 81% 29.54 in 9.0 mi SE 6.9 mph - N/A   Clear
2:16 AM 39.2 °F 32.5 °F 33.8 °F 81% 29.54 in 10.0 mi SSE 10.4 mph - N/A   Clear
2:36 AM 37.4 °F 29.3 °F 32.0 °F 81% 29.53 in 10.0 mi SE 12.7 mph - N/A   Clear
2:56 AM 39.2 °F 29.6 °F 32.0 °F 75% 29.51 in 10.0 mi SE 19.6 mph - N/A   Clear
3:16 AM 39.2 °F 30.2 °F 32.0 °F 75% 29.51 in 10.0 mi SE 17.3 mph - N/A   Clear
3:36 AM 41.0 °F 33.1 °F 33.8 °F 76% 29.50 in 10.0 mi SE 15.0 mph - N/A   Clear
3:56 AM 39.2 °F 29.6 °F 33.8 °F 81% 29.48 in 10.0 mi SE 19.6 mph 24.2 mph N/A   Clear
4:16 AM 41.0 °F 32.5 °F 33.8 °F 76% 29.46 in 10.0 mi SE 17.3 mph 23.0 mph N/A   Clear
4:36 AM 42.8 °F 33.8 °F 33.8 °F 70% 29.45 in 10.0 mi SE 21.9 mph 27.6 mph N/A   Partly Cloudy
4:56 AM 42.8 °F 34.5 °F 35.6 °F 76% 29.44 in 10.0 mi SE 18.4 mph - N/A   Mostly Cloudy
5:16 AM 44.6 °F 36.6 °F 35.6 °F 71% 29.42 in 10.0 mi SE 19.6 mph 26.5 mph N/A   Overcast
5:36 AM 44.6 °F 36.1 °F 35.6 °F 71% 29.41 in 10.0 mi SE 21.9 mph 26.5 mph N/A   Mostly Cloudy
5:56 AM 44.6 °F 35.7 °F 35.6 °F 71% 29.39 in 10.0 mi SE 24.2 mph 27.6 mph N/A   Scattered Clouds
6:16 AM 44.6 °F 35.9 °F 37.4 °F 76% 29.36 in 10.0 mi SSE 23.0 mph - N/A   Mostly Cloudy
6:36 AM 46.4 °F 38.5 °F 35.6 °F 66% 29.35 in 10.0 mi SSE 21.9 mph - N/A   Scattered Clouds
6:56 AM 46.4 °F 40.4 °F 35.6 °F 66% 29.34 in 10.0 mi SE 13.8 mph - N/A   Mostly Cloudy
7:16 AM 46.4 °F 38.1 °F 37.4 °F 71% 29.31 in 10.0 mi SE 24.2 mph 32.2 mph N/A   Mostly Cloudy
7:36 AM - - - N/A% 29.28 in 10.0 mi SSE 28.8 mph 41.4 mph N/A   Partly Cloudy
7:56 AM - - - N/A% 29.25 in 10.0 mi SSE 36.8 mph 42.6 mph N/A   Clear
8:16 AM 48.2 °F - 37.4 °F 66% 29.26 in 10.0 mi SSE 26.5 mph 38.0 mph N/A   Scattered Clouds
8:36 AM - - - N/A% 29.24 in 10.0 mi SSE 34.5 mph 43.7 mph N/A   Scattered Clouds
8:56 AM 48.2 °F - 39.2 °F 71% 29.25 in 10.0 mi SE 25.3 mph 34.5 mph N/A   Mostly Cloudy
9:16 AM 50.0 °F - 39.2 °F 66% 29.22 in 10.0 mi SE 29.9 mph 40.3 mph N/A   Mostly Cloudy
9:36 AM - - - N/A% 29.20 in 10.0 mi SSE 32.2 mph 42.6 mph N/A   Scattered Clouds
9:56 AM 50.0 °F - 39.2 °F 66% 29.20 in 10.0 mi SSE 31.1 mph 38.0 mph N/A   Partly Cloudy
10:16 AM 50.0 °F - 39.2 °F 66% 29.20 in 10.0 mi SSE 29.9 mph 36.8 mph N/A   Clear
10:36 AM 51.8 °F - 41.0 °F 67% 29.19 in 10.0 mi SSE 29.9 mph 36.8 mph N/A   Clear
10:56 AM - - - N/A% 29.17 in 10.0 mi SSE 33.4 mph 43.7 mph N/A   Partly Cloudy
11:16 AM - - - N/A% 29.17 in 10.0 mi SSE 29.9 mph 40.3 mph N/A   Partly Cloudy
11:36 AM 51.8 °F - 41.0 °F 67% 29.18 in 10.0 mi SSE 29.9 mph 41.4 mph N/A   Scattered Clouds
11:56 AM 51.8 °F - 41.0 °F 67% 29.19 in 10.0 mi SSE 23.0 mph 34.5 mph N/A   Overcast
12:16 PM 51.8 °F - 42.8 °F 71% 29.19 in 10.0 mi SSE 24.2 mph 31.1 mph N/A   Overcast
12:36 PM 51.8 °F - 42.8 °F 71% 29.18 in 10.0 mi SSE 24.2 mph 34.5 mph N/A   Mostly Cloudy
12:56 PM 53.6 °F - 42.8 °F 67% 29.18 in 10.0 mi SSE 23.0 mph 29.9 mph N/A   Scattered Clouds
1:16 PM 53.6 °F - 42.8 °F 67% 29.18 in 10.0 mi SSE 26.5 mph 32.2 mph N/A   Scattered Clouds
1:36 PM 53.6 °F - 39.2 °F 58% 29.20 in 10.0 mi SSE 21.9 mph 27.6 mph N/A   Mostly Cloudy
1:56 PM 51.8 °F - 37.4 °F 58% 29.19 in 10.0 mi SSE 20.7 mph 29.9 mph N/A   Mostly Cloudy
2:16 PM 53.6 °F - 37.4 °F 54% 29.18 in 10.0 mi SSE 25.3 mph 33.4 mph N/A   Partly Cloudy
2:36 PM 53.6 °F - 37.4 °F 54% 29.20 in 10.0 mi South 25.3 mph 34.5 mph N/A   Partly Cloudy
2:56 PM 53.6 °F - 35.6 °F 51% 29.19 in 10.0 mi SSE 27.6 mph 34.5 mph N/A   Clear
3:16 PM 51.8 °F - 35.6 °F 54% 29.19 in 10.0 mi SSE 28.8 mph 33.4 mph N/A   Clear
3:36 PM 51.8 °F - 35.6 °F 54% 29.18 in 10.0 mi SSE 25.3 mph 32.2 mph N/A   Clear
3:56 PM 51.8 °F - 35.6 °F 54% 29.18 in 10.0 mi SSE 26.5 mph - N/A   Clear
4:16 PM 51.8 °F - 33.8 °F 50% 29.19 in 10.0 mi SSE 21.9 mph - N/A   Clear
4:36 PM 48.2 °F - 33.8 °F 58% 29.19 in 10.0 mi SSE 20.7 mph - N/A   Clear
4:56 PM 48.2 °F - 33.8 °F 58% 29.19 in 10.0 mi SSE 16.1 mph - N/A   Mostly Cloudy
5:16 PM 48.2 °F - 33.8 °F 58% 29.18 in 10.0 mi SSE 20.7 mph 27.6 mph N/A   Mostly Cloudy
5:36 PM 50.0 °F - 35.6 °F 58% 29.16 in 10.0 mi SSE 26.5 mph 29.9 mph N/A   Partly Cloudy
5:56 PM 48.2 °F - 35.6 °F 62% 29.16 in 10.0 mi SSE 23.0 mph 32.2 mph N/A   Mostly Cloudy
6:16 PM 48.2 °F - 33.8 °F 58% 29.15 in 10.0 mi SSE 23.0 mph 29.9 mph N/A   Overcast
6:36 PM 48.2 °F - 33.8 °F 58% 29.15 in 10.0 mi SSE 26.5 mph 34.5 mph N/A   Overcast
6:56 PM 48.2 °F - 33.8 °F 58% 29.15 in 10.0 mi SSE 24.2 mph 31.1 mph N/A   Mostly Cloudy
7:16 PM 48.2 °F - 33.8 °F 58% 29.13 in 10.0 mi SSE 28.8 mph 35.7 mph N/A   Mostly Cloudy
7:36 PM 48.2 °F - 33.8 °F 58% 29.13 in 10.0 mi SSE 26.5 mph 38.0 mph N/A   Overcast
7:56 PM 48.2 °F - 35.6 °F 62% 29.13 in 10.0 mi SE 26.5 mph 33.4 mph N/A   Overcast
8:16 PM 48.2 °F - 33.8 °F 58% 29.13 in 10.0 mi SE 24.2 mph 33.4 mph N/A   Overcast
8:36 PM 46.4 °F 38.1 °F 35.6 °F 66% 29.13 in 10.0 mi SE 24.2 mph 33.4 mph N/A   Overcast
8:56 PM 46.4 °F 37.9 °F 35.6 °F 66% 29.12 in 10.0 mi SSE 25.3 mph 32.2 mph N/A   Overcast
9:16 PM 46.4 °F 37.9 °F 35.6 °F 66% 29.12 in 10.0 mi SSE 25.3 mph 32.2 mph N/A   Overcast
9:36 PM 46.4 °F 37.9 °F 35.6 °F 66% 29.11 in 10.0 mi SSE 25.3 mph 32.2 mph N/A   Mostly Cloudy
9:56 PM 46.4 °F 37.4 °F 35.6 °F 66% 29.10 in 10.0 mi SSE 28.8 mph 33.4 mph N/A   Mostly Cloudy
10:16 PM 46.4 °F 38.5 °F 35.6 °F 66% 29.11 in 10.0 mi SSE 21.9 mph - N/A   Overcast
10:36 PM 46.4 °F 37.9 °F 35.6 °F 66% 29.11 in 10.0 mi SSE 25.3 mph 28.8 mph N/A   Overcast
10:56 PM 46.4 °F 38.7 °F 33.8 °F 62% 29.11 in 10.0 mi SSE 20.7 mph - N/A   Scattered Clouds
11:16 PM 46.4 °F 38.5 °F 33.8 °F 62% 29.11 in 10.0 mi SSE 21.9 mph 26.5 mph N/A   Partly Cloudy
11:36 PM 46.4 °F 37.9 °F 35.6 °F 66% 29.11 in 10.0 mi SSE 25.3 mph - N/A   Partly Cloudy
11:56 PM 46.4 °F 37.9 °F 35.6 °F 66% 29.10 in 10.0 mi SSE 25.3 mph - N/A   Partly Cloudy